Printer-friendly version
Follow the MPC on Twitter Follow the MPC on Facebook The MPC blog
Minor Planet Center

MPEC 2010-G108: 2010 GX62

The following Minor Planet Electronic Circular may be linked-to from your own Web pages, but must not otherwise be redistributed electronically.

A form allowing access to any MPEC is at the bottom of this page.


Read MPEC 2010-G107 Read MPEC 2010-G109


M.P.E.C. 2010-G108                               Issued 2010 Apr. 14, 11:38 UT

     The Minor Planet Electronic Circulars contain information on unusual
         minor planets and routine data on comets.  They are published
   on behalf of Commission 20 of the International Astronomical Union by the
          Minor Planet Center, Smithsonian Astrophysical Observatory,
                          Cambridge, MA 02138, U.S.A.

             Prepared using the Tamkin Foundation Computer Network

                              MPC@CFA.HARVARD.EDU
       URL http://www.minorplanetcenter.org/iau/mpc.html  ISSN 1523-6714

                                   2010 GX62

Observations:
     K10G62X* S2010 04 10.57631 19 19 11.21 -09 58 39.9          19   R EG108C51
     K10G62X  s2010 04 10.57631 1 + 1689.9206 - 6572.8088 - 1306.7527   EG108C51
     K10G62X  S2010 04 10.70862 19 18 54.79 -09 48 26.7                 EG108C51
     K10G62X  s2010 04 10.70862 1 + 1706.1351 - 6570.0427 - 1299.0367   EG108C51
     K10G62X  S2010 04 10.77471 19 18 46.61 -09 43 21.8                 EG108C51
     K10G62X  s2010 04 10.77471 1 + 1721.5784 - 6574.4707 - 1254.9748   EG108C51
     K10G62X  S2010 04 10.84092 19 18 38.44 -09 38 16.3                 EG108C51
     K10G62X  s2010 04 10.84092 1 + 1722.2556 - 6567.0762 - 1292.3232   EG108C51
     K10G62X  S2010 04 11.03931 19 18 13.99 -09 23 05.1                 EG108C51
     K10G62X  s2010 04 11.03931 1 + 1754.6931 - 6569.1048 - 1238.7317   EG108C51
     K10G62X  C2010 04 14.43255 19 11 30.53 -05 17 23.6          20.6 R EG108H01
     K10G62X  C2010 04 14.43834 19 11 29.82 -05 16 59.7          19.6 R EG108H01
     K10G62X  C2010 04 14.44253 19 11 29.43 -05 16 41.0          20.3 R EG108926
     K10G62X  C2010 04 14.44484 19 11 29.00 -05 16 33.0          19.7 R EG108H01
     K10G62X  C2010 04 14.45074 19 11 28.36 -05 16 07.9          20.0 R EG108926
     K10G62X  C2010 04 14.45542 19 11 27.69 -05 15 49.4          20.1 R EG108H01

Observer details:
926 Tenagra II Observatory.  Observers P. R. Holvorcem, M. Schwartz.  Measurer
    P. R. Holvorcem.  0.81-m f/7 Ritchey-Chretien + CCD.
H01 Magdalena Ridge Observatory, Socorro.  Observer W. H. Ryan.  2.4-m f/8.9
    reflector + CCD.
C51 WISE.  Measurers A. Mainzer, E. Wright, J. Bauer, T. Grav, J. Dailey, J.
    Masiero, R. Cutri, R. McMillan, R. Walker.
    (http://wise.ssl.berkeley.edu/mission_sci.html)

Orbital elements:
2010 GX62                                           PHA, Earth MOID = 0.0118 AU
Epoch 2010 July 23.0 TT = JDT 2455400.5                 MPC
M  27.61174              (2000.0)            P               Q
n   0.19479736     Peri.  316.10046     -0.93856048     -0.29885452
a   2.9472298      Node   207.93121     +0.31448789     -0.94659505
e   0.7034160      Incl.   21.62167     -0.14213230     -0.12101148
P   5.06           H   20.4           G   0.15           U   9
Residuals in seconds of arc
100410 C51  0.1-  0.0     100411 C51  0.1-  0.1+    100414 H01  0.3-  0.1-
100410 C51  0.2-  0.1+    100414 H01  0.2-  0.1-    100414 926  0.5-  0.3-
100410 C51  0.2-  0.2-    100414 H01  0.1-  0.0     100414 H01  0.2-  0.0
100410 C51  0.1-  0.1-    100414 926  0.2+  0.4+

Ephemeris:
2010 GX62                a,e,i = 2.95, 0.70, 22                  q = 0.8741
Date    TT    R. A. (2000) Decl.     Delta      r     Elong.  Phase     V
2010 04 14    19 12.33   -05 47.1    0.313    1.075    94.8    68.3    20.4
2010 04 24    18 53.42   +04 08.5    0.364    1.163   106.5    56.0    20.6
2010 05 04    18 33.97   +11 08.1    0.421    1.256   116.9    45.7    20.8
2010 05 14    18 13.34   +15 41.4    0.486    1.353   125.8    37.3    21.0
2010 05 24    17 52.65   +18 08.9    0.560    1.452   132.7    30.9    21.3
2010 06 03    17 33.80   +18 53.3    0.646    1.551   137.0    26.5    21.6
2010 06 13    17 18.24   +18 19.8    0.746    1.650   138.5    24.1    22.0

Timothy B. Spahr             (C) Copyright 2010 MPC           M.P.E.C. 2010-G108

Read MPEC 2010-G107 Read MPEC 2010-G109


MPEC number:

Enter an MPEC number in one of the following forms:

  • 1997-B01 (the full form)
  • J97B01 (the packed version of the full form)
  • B01 (the abbreviated form)

Valid HTML 4.01!